Time,TemperatureF,DewpointF,PressureIn,WindDirection,WindDirectionDegrees,WindSpeedMPH,WindSpeedGustMPH,Humidity,HourlyPrecipIn,Conditions,Clouds,dailyrainin,SolarRadiationWatts/m^2,SoftwareType,DateUTC
2013-06-30 00:01:00,63.1,56.5,29.94,NE,40,1.0,5.0,79,0.00,,---,0.05,0.00,VWS V14.01,2013-06-30 05:01:00,
2013-06-30 00:06:00,62.9,56.3,29.94,NE,40,2.0,3.0,79,0.00,,---,0.00,0.00,VWS V14.01,2013-06-30 05:06:00,
2013-06-30 00:11:00,62.7,56.1,29.94,NE,40,0.0,3.0,79,0.00,,---,0.00,0.00,VWS V14.01,2013-06-30 05:11:00,
2013-06-30 00:16:00,62.6,56.0,29.94,NE,40,0.0,3.0,79,0.00,,---,0.00,0.00,VWS V14.01,2013-06-30 05:16:00,
2013-06-30 00:21:00,62.5,55.9,29.94,NE,40,0.0,0.0,79,0.00,,---,0.00,0.00,VWS V14.01,2013-06-30 05:21:00,
2013-06-30 00:26:00,62.5,55.6,29.94,NE,40,0.0,0.0,78,0.00,,---,0.00,0.00,VWS V14.01,2013-06-30 05:26:00,
2013-06-30 00:31:00,62.5,55.6,29.94,NE,40,3.0,5.0,78,0.00,,---,0.00,0.00,VWS V14.01,2013-06-30 05:31:00,
2013-06-30 00:36:00,62.5,55.6,29.94,NE,40,3.0,3.0,78,0.00,,---,0.00,0.00,VWS V14.01,2013-06-30 05:36:00,
2013-06-30 00:41:00,62.4,55.5,29.94,NE,40,3.0,4.0,78,0.00,,---,0.00,0.00,VWS V14.01,2013-06-30 05:41:00,
2013-06-30 00:46:00,62.4,55.5,29.95,NE,40,1.0,4.0,78,0.00,,---,0.00,0.00,VWS V14.01,2013-06-30 05:46:00,
2013-06-30 00:51:00,62.3,55.0,29.95,NE,40,0.0,3.0,77,0.00,,---,0.00,0.00,VWS V14.01,2013-06-30 05:51:00,
2013-06-30 00:56:00,62.2,54.9,29.95,NE,40,0.0,3.0,77,0.00,,---,0.00,0.00,VWS V14.01,2013-06-30 05:56:00,
2013-06-30 01:01:00,61.8,54.5,29.95,NE,40,0.0,3.0,77,0.00,,---,0.00,0.00,VWS V14.01,2013-06-30 06:01:00,
2013-06-30 01:06:00,61.6,54.3,29.96,NE,40,0.0,0.0,77,0.00,,---,0.00,0.00,VWS V14.01,2013-06-30 06:06:00,
2013-06-30 01:11:00,61.4,54.1,29.96,NE,40,0.0,0.0,77,0.00,,---,0.00,0.00,VWS V14.01,2013-06-30 06:11:00,
2013-06-30 01:16:00,61.4,53.8,29.96,NE,40,0.0,0.0,76,0.00,,---,0.00,0.00,VWS V14.01,2013-06-30 06:16:00,
2013-06-30 01:21:00,61.3,53.7,29.96,NE,40,0.0,0.0,76,0.00,,---,0.00,0.00,VWS V14.01,2013-06-30 06:21:00,
2013-06-30 01:26:00,61.3,53.7,29.96,NE,39,0.0,0.0,76,0.00,,---,0.00,0.00,VWS V14.01,2013-06-30 06:26:00,
2013-06-30 01:31:00,61.2,53.6,29.97,NE,38,0.0,0.0,76,0.00,,---,0.00,0.00,VWS V14.01,2013-06-30 06:31:00,
2013-06-30 01:36:00,61.2,53.6,29.97,NE,39,0.0,0.0,76,0.00,,---,0.00,0.00,VWS V14.01,2013-06-30 06:36:00,
2013-06-30 01:41:00,61.0,53.4,29.97,NE,40,0.0,0.0,76,0.00,,---,0.00,0.00,VWS V14.01,2013-06-30 06:41:00,
2013-06-30 01:46:00,60.8,53.2,29.97,NE,40,0.0,0.0,76,0.00,,---,0.00,0.00,VWS V14.01,2013-06-30 06:46:00,
2013-06-30 01:51:00,60.6,53.0,29.97,NE,40,0.0,0.0,76,0.00,,---,0.00,0.00,VWS V14.01,2013-06-30 06:51:00,
2013-06-30 01:56:00,60.4,52.8,29.97,NE,40,0.0,0.0,76,0.00,,---,0.00,0.00,VWS V14.01,2013-06-30 06:56:00,
2013-06-30 02:01:00,60.3,53.1,29.97,NE,40,0.0,0.0,77,0.00,,---,0.00,0.00,VWS V14.01,2013-06-30 07:01:00,
2013-06-30 02:06:00,60.0,52.8,29.97,NE,40,0.0,0.0,77,0.00,,---,0.00,0.00,VWS V14.01,2013-06-30 07:06:00,
2013-06-30 02:11:00,59.8,52.9,29.98,NE,40,0.0,0.0,78,0.00,,---,0.00,0.00,VWS V14.01,2013-06-30 07:11:00,
2013-06-30 02:16:00,59.4,52.9,29.98,NE,40,0.0,0.0,79,0.00,,---,0.00,0.00,VWS V14.01,2013-06-30 07:16:00,
2013-06-30 02:21:00,59.0,52.5,29.98,NE,39,0.0,0.0,79,0.00,,---,0.00,0.00,VWS V14.01,2013-06-30 07:21:00,
2013-06-30 02:26:00,59.0,52.8,29.98,NE,39,0.0,0.0,80,0.00,,---,0.00,0.00,VWS V14.01,2013-06-30 07:26:00,
2013-06-30 02:31:00,58.9,53.8,29.98,NE,38,0.0,0.0,83,0.00,,---,0.00,0.00,VWS V14.01,2013-06-30 07:31:00,
2013-06-30 02:36:00,58.6,52.8,29.99,NE,39,0.0,0.0,81,0.00,,---,0.00,0.00,VWS V14.01,2013-06-30 07:36:00,
2013-06-30 02:41:00,58.3,52.8,29.99,NE,38,0.0,0.0,82,0.00,,---,0.00,0.00,VWS V14.01,2013-06-30 07:41:00,
2013-06-30 02:46:00,58.1,53.0,29.99,NE,38,0.0,0.0,83,0.00,,---,0.00,0.00,VWS V14.01,2013-06-30 07:46:00,
2013-06-30 02:51:00,58.0,52.9,29.99,NE,38,0.0,0.0,83,0.00,,---,0.00,0.00,VWS V14.01,2013-06-30 07:51:00,
2013-06-30 02:56:00,57.8,53.0,29.99,NE,39,0.0,0.0,84,0.00,,---,0.00,0.00,VWS V14.01,2013-06-30 07:56:00,
2013-06-30 03:01:00,57.5,52.7,29.99,NE,39,0.0,0.0,84,0.00,,---,0.00,0.00,VWS V14.01,2013-06-30 08:01:00,
2013-06-30 03:06:00,57.2,52.7,29.99,NE,38,0.0,0.0,85,0.00,,---,0.00,0.00,VWS V14.01,2013-06-30 08:06:00,
2013-06-30 03:11:00,57.0,52.5,29.99,NE,39,0.0,0.0,85,0.00,,---,0.00,0.00,VWS V14.01,2013-06-30 08:11:00,
2013-06-30 03:16:00,56.8,52.3,29.99,NE,39,0.0,0.0,85,0.00,,---,0.00,0.00,VWS V14.01,2013-06-30 08:16:00,
2013-06-30 03:21:00,56.7,52.2,30.00,NE,38,0.0,0.0,85,0.00,,---,0.00,0.00,VWS V14.01,2013-06-30 08:21:00,
2013-06-30 03:26:00,56.7,52.6,30.01,North,360,4.0,4.0,86,0.00,,---,0.00,0.00,VWS V14.01,2013-06-30 08:26:00,
2013-06-30 03:31:00,57.0,52.9,30.01,NNW,348,2.0,6.0,86,0.00,,---,0.00,0.00,VWS V14.01,2013-06-30 08:31:00,
2013-06-30 03:36:00,57.4,52.9,30.01,NNW,346,4.0,6.0,85,0.00,,---,0.00,0.00,VWS V14.01,2013-06-30 08:36:00,
2013-06-30 03:41:00,57.7,53.2,30.01,NNW,346,5.0,7.0,85,0.00,,---,0.00,0.00,VWS V14.01,2013-06-30 08:41:00,
2013-06-30 03:46:00,58.1,53.3,30.00,NNW,346,6.0,7.0,84,0.00,,---,0.00,0.00,VWS V14.01,2013-06-30 08:46:00,
2013-06-30 03:51:00,58.4,53.3,30.01,NNW,344,5.0,6.0,83,0.00,,---,0.00,0.00,VWS V14.01,2013-06-30 08:51:00,
2013-06-30 03:56:00,58.6,53.5,30.00,NNW,344,4.0,6.0,83,0.00,,---,0.00,0.00,VWS V14.01,2013-06-30 08:56:00,
2013-06-30 04:01:00,58.6,53.5,30.01,NNW,344,0.0,6.0,83,0.00,,---,0.00,0.00,VWS V14.01,2013-06-30 09:01:00,
2013-06-30 04:06:00,58.4,52.9,30.00,NNW,344,0.0,0.0,82,0.00,,---,0.00,0.00,VWS V14.01,2013-06-30 09:06:00,
2013-06-30 04:11:00,57.9,52.5,30.00,NNW,344,0.0,0.0,82,0.00,,---,0.00,0.00,VWS V14.01,2013-06-30 09:11:00,
2013-06-30 04:16:00,57.3,52.2,30.00,NNW,344,0.0,0.0,83,0.00,,---,0.00,0.00,VWS V14.01,2013-06-30 09:16:00,
2013-06-30 04:21:00,56.8,52.0,30.00,NNW,344,0.0,0.0,84,0.00,,---,0.00,0.00,VWS V14.01,2013-06-30 09:21:00,
2013-06-30 04:26:00,56.5,51.7,30.00,NNW,344,0.0,0.0,84,0.00,,---,0.00,0.00,VWS V14.01,2013-06-30 09:26:00,
2013-06-30 04:31:00,56.3,51.9,30.00,NNW,344,0.0,0.0,85,0.00,,---,0.00,0.00,VWS V14.01,2013-06-30 09:31:00,
2013-06-30 04:36:00,56.0,51.6,30.00,NNW,344,0.0,0.0,85,0.00,,---,0.00,0.00,VWS V14.01,2013-06-30 09:36:00,
2013-06-30 04:41:00,55.8,51.7,30.00,NNW,344,0.0,0.0,86,0.00,,---,0.00,0.00,VWS V14.01,2013-06-30 09:41:00,
2013-06-30 04:46:00,55.7,51.9,30.01,NNW,344,0.0,0.0,87,0.00,,---,0.00,0.00,VWS V14.01,2013-06-30 09:46:00,
2013-06-30 04:51:00,55.8,52.0,30.01,NNW,344,0.0,0.0,87,0.00,,---,0.00,0.00,VWS V14.01,2013-06-30 09:51:00,
2013-06-30 04:56:00,56.0,52.2,30.01,NNW,345,0.0,3.0,87,0.00,,---,0.00,0.00,VWS V14.01,2013-06-30 09:56:00,
2013-06-30 05:01:00,56.2,52.4,30.01,NNW,345,0.0,3.0,87,0.00,,---,0.00,0.00,VWS V14.01,2013-06-30 10:01:00,
2013-06-30 05:06:00,56.1,52.3,30.01,NNW,345,0.0,0.0,87,0.00,,---,0.00,0.00,VWS V14.01,2013-06-30 10:06:00,
2013-06-30 05:11:00,56.0,52.2,30.01,NNW,345,0.0,0.0,87,0.00,,---,0.00,0.00,VWS V14.01,2013-06-30 10:11:00,
2013-06-30 05:16:00,56.0,52.2,30.01,North,355,2.0,4.0,87,0.00,,---,0.00,0.00,VWS V14.01,2013-06-30 10:16:00,
2013-06-30 05:21:00,56.1,52.3,30.01,North,355,1.0,3.0,87,0.00,,---,0.00,0.00,VWS V14.01,2013-06-30 10:21:00,
2013-06-30 05:26:00,56.2,52.4,30.01,North,355,0.0,3.0,87,0.00,,---,0.00,0.00,VWS V14.01,2013-06-30 10:26:00,
2013-06-30 05:31:00,56.2,52.4,30.01,North,355,0.0,3.0,87,0.00,,---,0.00,0.00,VWS V14.01,2013-06-30 10:31:00,
2013-06-30 05:36:00,56.3,52.2,30.01,North,355,2.0,4.0,86,0.00,,---,0.00,0.00,VWS V14.01,2013-06-30 10:36:00,
2013-06-30 05:41:00,56.3,52.2,30.01,North,355,3.0,4.0,86,0.00,,---,0.00,0.00,VWS V14.01,2013-06-30 10:41:00,
2013-06-30 05:46:00,56.3,52.2,30.01,North,355,0.0,4.0,86,0.00,,---,0.00,0.00,VWS V14.01,2013-06-30 10:46:00,
2013-06-30 05:51:00,56.2,52.1,30.01,North,355,0.0,0.0,86,0.00,,---,0.00,0.00,VWS V14.01,2013-06-30 10:51:00,
2013-06-30 05:56:00,56.1,52.0,30.02,North,355,0.0,2.0,86,0.00,,---,0.00,7.00,VWS V14.01,2013-06-30 10:56:00,
2013-06-30 06:01:00,56.1,52.0,30.02,North,355,0.0,2.0,86,0.00,,---,0.00,11.00,VWS V14.01,2013-06-30 11:01:00,
2013-06-30 06:06:00,56.0,51.9,30.02,North,355,0.0,0.0,86,0.00,,---,0.00,12.00,VWS V14.01,2013-06-30 11:06:00,
2013-06-30 06:11:00,56.0,51.9,30.02,North,355,0.0,0.0,86,0.00,,---,0.00,16.00,VWS V14.01,2013-06-30 11:11:00,
2013-06-30 06:16:00,56.0,51.9,30.02,North,355,0.0,0.0,86,0.00,,---,0.00,21.00,VWS V14.01,2013-06-30 11:16:00,
2013-06-30 06:21:00,56.0,51.9,30.02,North,355,0.0,0.0,86,0.00,,---,0.00,25.00,VWS V14.01,2013-06-30 11:21:00,
2013-06-30 06:26:00,55.9,51.8,30.03,North,355,0.0,0.0,86,0.00,,---,0.00,30.00,VWS V14.01,2013-06-30 11:26:00,
2013-06-30 06:31:00,55.8,52.0,30.03,North,355,0.0,0.0,87,0.00,,---,0.00,35.00,VWS V14.01,2013-06-30 11:31:00,
2013-06-30 06:36:00,55.7,51.9,30.03,North,355,0.0,0.0,87,0.00,,---,0.00,40.00,VWS V14.01,2013-06-30 11:36:00,
2013-06-30 06:41:00,55.8,52.3,30.03,North,355,0.0,0.0,88,0.00,,---,0.00,46.00,VWS V14.01,2013-06-30 11:41:00,
2013-06-30 06:46:00,56.0,52.5,30.04,North,355,0.0,0.0,88,0.00,,---,0.00,51.00,VWS V14.01,2013-06-30 11:46:00,
2013-06-30 06:51:00,56.2,52.4,30.03,North,355,2.0,4.0,87,0.00,,---,0.00,56.00,VWS V14.01,2013-06-30 11:51:00,
2013-06-30 06:56:00,56.3,52.5,30.04,North,355,0.0,4.0,87,0.00,,---,0.00,63.00,VWS V14.01,2013-06-30 11:56:00,
2013-06-30 07:01:00,56.5,52.7,30.05,North,355,0.0,4.0,87,0.00,,---,0.00,70.00,VWS V14.01,2013-06-30 12:01:00,
2013-06-30 07:06:00,56.6,52.8,30.05,North,355,0.0,0.0,87,0.00,,---,0.00,76.00,VWS V14.01,2013-06-30 12:06:00,
2013-06-30 07:11:00,56.7,52.9,30.04,North,355,0.0,0.0,87,0.00,,---,0.00,83.00,VWS V14.01,2013-06-30 12:11:00,
2013-06-30 07:16:00,56.9,53.1,30.05,North,355,0.0,0.0,87,0.00,,---,0.00,93.00,VWS V14.01,2013-06-30 12:16:00,
2013-06-30 07:21:00,57.1,53.3,30.05,North,355,0.0,0.0,87,0.00,,---,0.00,107.00,VWS V14.01,2013-06-30 12:21:00,
2013-06-30 07:26:00,57.4,53.6,30.05,North,355,0.0,0.0,87,0.00,,---,0.00,128.00,VWS V14.01,2013-06-30 12:26:00,
2013-06-30 07:31:00,57.8,54.0,30.05,North,355,1.0,4.0,87,0.00,,---,0.00,134.00,VWS V14.01,2013-06-30 12:31:00,
2013-06-30 07:36:00,58.2,54.4,30.05,North,355,0.0,4.0,87,0.00,,---,0.00,155.00,VWS V14.01,2013-06-30 12:36:00,
2013-06-30 07:41:00,58.6,54.4,30.06,North,355,0.0,4.0,86,0.00,,---,0.00,186.00,VWS V14.01,2013-06-30 12:41:00,
2013-06-30 07:46:00,59.0,54.8,30.06,North,355,2.0,4.0,86,0.00,,---,0.00,202.00,VWS V14.01,2013-06-30 12:46:00,
2013-06-30 07:51:00,59.4,55.2,30.06,North,355,4.0,4.0,86,0.00,,---,0.00,214.00,VWS V14.01,2013-06-30 12:51:00,
2013-06-30 07:56:00,60.0,55.5,30.06,North,355,1.0,4.0,85,0.00,,---,0.00,248.00,VWS V14.01,2013-06-30 12:56:00,
2013-06-30 08:01:00,60.5,55.7,30.06,North,355,5.0,5.0,84,0.00,,---,0.00,244.00,VWS V14.01,2013-06-30 13:01:00,
2013-06-30 08:06:00,61.0,55.1,30.06,North,360,3.0,6.0,81,0.00,,---,0.00,237.00,VWS V14.01,2013-06-30 13:06:00,
2013-06-30 08:11:00,61.4,55.5,30.07,North,5,0.0,6.0,81,0.00,,---,0.00,279.00,VWS V14.01,2013-06-30 13:11:00,
2013-06-30 08:16:00,61.9,55.7,30.07,North,360,4.0,7.0,80,0.00,,---,0.00,322.00,VWS V14.01,2013-06-30 13:16:00,
2013-06-30 08:21:00,62.4,55.5,30.07,North,5,4.0,6.0,78,0.00,,---,0.00,350.00,VWS V14.01,2013-06-30 13:21:00,
2013-06-30 08:26:00,63.0,55.3,30.07,NNE,12,4.0,7.0,76,0.00,,---,0.00,373.00,VWS V14.01,2013-06-30 13:26:00,
2013-06-30 08:31:00,63.6,55.9,30.07,North,11,7.0,9.0,76,0.00,,---,0.00,397.00,VWS V14.01,2013-06-30 13:31:00,
2013-06-30 08:36:00,64.1,54.9,30.07,North,9,7.0,9.0,72,0.00,,---,0.00,399.00,VWS V14.01,2013-06-30 13:36:00,
2013-06-30 08:41:00,64.5,54.5,30.08,NNE,16,8.0,10.0,70,0.00,,---,0.00,415.00,VWS V14.01,2013-06-30 13:41:00,
2013-06-30 08:46:00,64.9,55.3,30.07,North,10,5.0,10.0,71,0.00,,---,0.00,403.00,VWS V14.01,2013-06-30 13:46:00,
2013-06-30 08:51:00,65.2,54.4,30.07,North,5,4.0,10.0,68,0.00,,---,0.00,399.00,VWS V14.01,2013-06-30 13:51:00,
2013-06-30 08:56:00,65.4,54.2,30.08,North,5,4.0,10.0,67,0.00,,---,0.00,374.00,VWS V14.01,2013-06-30 13:56:00,
2013-06-30 09:01:00,65.6,55.2,30.08,North,9,5.0,10.0,69,0.00,,---,0.00,380.00,VWS V14.01,2013-06-30 14:01:00,
2013-06-30 09:06:00,65.8,55.0,30.08,North,360,5.0,6.0,68,0.00,,---,0.00,394.00,VWS V14.01,2013-06-30 14:06:00,
2013-06-30 09:11:00,66.0,53.9,30.08,North,5,5.0,9.0,65,0.00,,---,0.00,413.00,VWS V14.01,2013-06-30 14:11:00,
2013-06-30 09:16:00,66.2,53.2,30.08,NNE,14,6.0,11.0,63,0.00,,---,0.00,425.00,VWS V14.01,2013-06-30 14:16:00,
2013-06-30 09:21:00,66.5,53.5,30.07,NNE,14,7.0,9.0,63,0.00,,---,0.00,439.00,VWS V14.01,2013-06-30 14:21:00,
2013-06-30 09:26:00,66.8,53.4,30.07,NNE,15,7.0,9.0,62,0.00,,---,0.00,450.00,VWS V14.01,2013-06-30 14:26:00,
2013-06-30 09:31:00,67.0,53.1,30.07,NNE,13,5.0,10.0,61,0.00,,---,0.00,464.00,VWS V14.01,2013-06-30 14:31:00,
2013-06-30 09:36:00,67.4,53.9,30.08,NNE,13,1.0,6.0,62,0.00,,---,0.00,475.00,VWS V14.01,2013-06-30 14:36:00,
2013-06-30 09:41:00,67.7,53.8,30.08,North,11,5.0,9.0,61,0.00,,---,0.00,490.00,VWS V14.01,2013-06-30 14:41:00,
2013-06-30 09:46:00,68.0,53.6,30.08,NNE,15,5.0,11.0,60,0.00,,---,0.00,522.00,VWS V14.01,2013-06-30 14:46:00,
2013-06-30 09:51:00,68.3,54.3,30.08,NE,34,5.0,10.0,61,0.00,,---,0.00,519.00,VWS V14.01,2013-06-30 14:51:00,
2013-06-30 09:56:00,68.6,53.7,30.08,NE,38,3.0,10.0,59,0.00,,---,0.00,520.00,VWS V14.01,2013-06-30 14:56:00,
2013-06-30 10:01:00,68.8,52.5,30.07,NNE,19,4.0,11.0,56,0.00,,---,0.00,527.00,VWS V14.01,2013-06-30 15:01:00,
2013-06-30 10:06:00,69.0,53.2,30.07,NE,41,5.0,11.0,57,0.00,,---,0.00,547.00,VWS V14.01,2013-06-30 15:06:00,
2013-06-30 10:11:00,69.2,53.3,30.08,NNE,22,6.0,11.0,57,0.00,,---,0.00,559.00,VWS V14.01,2013-06-30 15:11:00,
2013-06-30 10:16:00,69.4,52.5,30.08,North,11,6.0,11.0,55,0.00,,---,0.00,575.00,VWS V14.01,2013-06-30 15:16:00,
2013-06-30 10:21:00,69.6,51.7,30.08,NNE,18,3.0,10.0,53,0.00,,---,0.00,561.00,VWS V14.01,2013-06-30 15:21:00,
2013-06-30 10:26:00,69.8,52.9,30.08,ENE,67,6.0,10.0,55,0.00,,---,0.00,594.00,VWS V14.01,2013-06-30 15:26:00,
2013-06-30 10:31:00,70.0,52.6,30.08,NE,40,5.0,10.0,54,0.00,,---,0.00,533.00,VWS V14.01,2013-06-30 15:31:00,
2013-06-30 10:36:00,70.2,53.8,30.08,NE,36,5.0,7.0,56,0.00,,---,0.00,573.00,VWS V14.01,2013-06-30 15:36:00,
2013-06-30 10:41:00,70.4,52.5,30.08,NE,40,4.0,9.0,53,0.00,,---,0.00,666.00,VWS V14.01,2013-06-30 15:41:00,
2013-06-30 10:46:00,70.8,53.3,30.08,NNE,32,5.0,9.0,54,0.00,,---,0.00,657.00,VWS V14.01,2013-06-30 15:46:00,
2013-06-30 10:51:00,71.0,51.5,30.08,NNE,21,9.0,11.0,50,0.00,,---,0.00,666.00,VWS V14.01,2013-06-30 15:51:00,
2013-06-30 10:56:00,71.2,50.5,30.08,NNE,15,5.0,11.0,48,0.00,,---,0.00,726.00,VWS V14.01,2013-06-30 15:56:00,
2013-06-30 11:01:00,71.3,51.2,30.08,NNE,28,4.0,12.0,49,0.00,,---,0.00,733.00,VWS V14.01,2013-06-30 16:01:00,
2013-06-30 11:07:00,71.7,52.1,30.08,North,360,3.0,10.0,50,0.00,,---,0.00,738.00,VWS V14.01,2013-06-30 16:07:00,
2013-06-30 11:12:00,72.2,53.6,30.08,NNE,14,10.0,13.0,52,0.00,,---,0.00,751.00,VWS V14.01,2013-06-30 16:12:00,
2013-06-30 11:17:00,72.4,54.3,30.08,NNW,344,12.0,13.0,53,0.00,,---,0.00,791.00,VWS V14.01,2013-06-30 16:17:00,
2013-06-30 11:22:00,72.4,53.8,30.08,NNW,348,10.0,13.0,52,0.00,,---,0.00,821.00,VWS V14.01,2013-06-30 16:22:00,
2013-06-30 11:27:00,72.4,55.3,30.08,NNE,14,10.0,13.0,55,0.00,,---,0.00,817.00,VWS V14.01,2013-06-30 16:27:00,
2013-06-30 11:32:00,72.5,55.4,30.07,North,355,7.0,13.0,55,0.00,,---,0.00,849.00,VWS V14.01,2013-06-30 16:32:00,
2013-06-30 11:37:00,72.7,55.6,30.07,NNE,29,13.0,13.0,55,0.00,,---,0.00,851.00,VWS V14.01,2013-06-30 16:37:00,
2013-06-30 11:42:00,73.0,55.9,30.07,NNE,21,7.0,14.0,55,0.00,,---,0.00,858.00,VWS V14.01,2013-06-30 16:42:00,
2013-06-30 11:47:00,73.1,56.5,30.07,NNE,32,4.0,14.0,56,0.00,,---,0.00,846.00,VWS V14.01,2013-06-30 16:47:00,
2013-06-30 11:52:00,73.4,57.3,30.07,North,360,6.0,9.0,57,0.00,,---,0.00,902.00,VWS V14.01,2013-06-30 16:52:00,
2013-06-30 11:57:00,73.7,55.0,30.07,North,9,8.0,14.0,52,0.00,,---,0.00,926.00,VWS V14.01,2013-06-30 16:57:00,
2013-06-30 12:02:00,73.6,54.4,30.07,NNE,23,8.0,14.0,51,0.00,,---,0.00,916.00,VWS V14.01,2013-06-30 17:02:00,
2013-06-30 12:07:00,73.7,56.5,30.07,North,355,9.0,13.0,55,0.00,,---,0.00,415.00,VWS V14.01,2013-06-30 17:07:00,
2013-06-30 12:12:00,73.8,54.6,30.07,North,11,8.0,13.0,51,0.00,,---,0.00,967.00,VWS V14.01,2013-06-30 17:12:00,
2013-06-30 12:17:00,73.9,54.7,30.07,North,350,10.0,16.0,51,0.00,,---,0.00,967.00,VWS V14.01,2013-06-30 17:17:00,
2013-06-30 12:22:00,74.1,55.4,30.07,NE,40,9.0,13.0,52,0.00,,---,0.00,956.00,VWS V14.01,2013-06-30 17:22:00,
2013-06-30 12:27:00,74.2,56.0,30.07,NE,49,10.0,13.0,53,0.00,,---,0.00,984.00,VWS V14.01,2013-06-30 17:27:00,
2013-06-30 12:32:00,74.2,55.5,30.07,NNE,24,7.0,13.0,52,0.00,,---,0.00,977.00,VWS V14.01,2013-06-30 17:32:00,
2013-06-30 12:37:00,74.5,54.1,30.07,North,5,10.0,13.0,49,0.00,,---,0.00,986.00,VWS V14.01,2013-06-30 17:37:00,
2013-06-30 12:42:00,74.6,54.8,30.07,NNE,22,13.0,14.0,50,0.00,,---,0.00,946.00,VWS V14.01,2013-06-30 17:42:00,
2013-06-30 12:47:00,74.5,53.5,30.07,NNE,15,6.0,14.0,48,0.00,,---,0.00,954.00,VWS V14.01,2013-06-30 17:47:00,
2013-06-30 12:52:00,74.6,53.1,30.07,NNE,24,5.0,17.0,47,0.00,,---,0.00,264.00,VWS V14.01,2013-06-30 17:52:00,
2013-06-30 12:57:00,74.6,54.2,30.07,NE,41,7.0,17.0,49,0.00,,---,0.00,956.00,VWS V14.01,2013-06-30 17:57:00,
2013-06-30 13:02:00,75.1,52.3,30.07,NNE,26,15.0,17.0,45,0.00,,---,0.00,956.00,VWS V14.01,2013-06-30 18:02:00,
2013-06-30 13:07:00,75.2,50.6,30.07,NE,48,10.0,17.0,42,0.00,,---,0.00,967.00,VWS V14.01,2013-06-30 18:07:00,
2013-06-30 13:12:00,75.2,51.8,30.07,NE,54,11.0,17.0,44,0.00,,---,0.00,939.00,VWS V14.01,2013-06-30 18:12:00,
2013-06-30 13:17:00,75.4,52.0,30.07,North,9,7.0,17.0,44,0.00,,---,0.00,963.00,VWS V14.01,2013-06-30 18:17:00,
2013-06-30 13:22:00,75.5,53.3,30.07,North,11,13.0,13.0,46,0.00,,---,0.00,969.00,VWS V14.01,2013-06-30 18:22:00,
2013-06-30 13:27:00,75.5,52.1,30.07,North,360,10.0,16.0,44,0.00,,---,0.00,967.00,VWS V14.01,2013-06-30 18:27:00,
2013-06-30 13:32:00,75.7,52.3,30.07,NNE,17,6.0,16.0,44,0.00,,---,0.00,954.00,VWS V14.01,2013-06-30 18:32:00,
2013-06-30 13:37:00,75.8,52.4,30.07,NE,35,11.0,15.0,44,0.00,,---,0.00,953.00,VWS V14.01,2013-06-30 18:37:00,
2013-06-30 13:42:00,75.8,53.0,30.07,North,355,5.0,15.0,45,0.00,,---,0.00,963.00,VWS V14.01,2013-06-30 18:42:00,
2013-06-30 13:47:00,75.8,53.0,30.07,NNE,28,6.0,15.0,45,0.00,,---,0.00,953.00,VWS V14.01,2013-06-30 18:47:00,
2013-06-30 13:52:00,76.0,52.5,30.07,NNE,29,7.0,14.0,44,0.00,,---,0.00,963.00,VWS V14.01,2013-06-30 18:52:00,
2013-06-30 13:57:00,76.0,52.5,30.07,NNE,13,1.0,14.0,44,0.00,,---,0.00,958.00,VWS V14.01,2013-06-30 18:57:00,
2013-06-30 14:02:00,76.3,53.4,30.07,NE,39,10.0,14.0,45,0.00,,---,0.00,946.00,VWS V14.01,2013-06-30 19:02:00,
2013-06-30 14:07:00,76.4,52.3,30.07,NE,36,6.0,10.0,43,0.00,,---,0.00,970.00,VWS V14.01,2013-06-30 19:07:00,
2013-06-30 14:12:00,76.5,53.0,30.07,NE,40,14.0,15.0,44,0.00,,---,0.00,951.00,VWS V14.01,2013-06-30 19:12:00,
2013-06-30 14:17:00,76.4,52.3,30.07,NE,55,7.0,15.0,43,0.00,,---,0.00,954.00,VWS V14.01,2013-06-30 19:17:00,
2013-06-30 14:22:00,76.5,50.4,30.07,NE,40,9.0,13.0,40,0.00,,---,0.00,942.00,VWS V14.01,2013-06-30 19:22:00,
2013-06-30 14:27:00,76.6,51.2,30.07,NE,47,10.0,13.0,41,0.00,,---,0.00,960.00,VWS V14.01,2013-06-30 19:27:00,
2013-06-30 14:32:00,76.5,51.7,30.07,NE,34,9.0,14.0,42,0.00,,---,0.00,944.00,VWS V14.01,2013-06-30 19:32:00,
2013-06-30 14:37:00,76.4,52.9,30.07,NE,41,6.0,7.0,44,0.00,,---,0.00,944.00,VWS V14.01,2013-06-30 19:37:00,
2013-06-30 14:42:00,76.7,51.9,30.06,NE,49,8.0,15.0,42,0.00,,---,0.00,939.00,VWS V14.01,2013-06-30 19:42:00,
2013-06-30 14:47:00,76.8,52.0,30.06,North,10,6.0,15.0,42,0.00,,---,0.00,926.00,VWS V14.01,2013-06-30 19:47:00,
2013-06-30 14:52:00,77.0,52.8,30.06,NNE,30,6.0,9.0,43,0.00,,---,0.00,925.00,VWS V14.01,2013-06-30 19:52:00,
2013-06-30 14:57:00,76.9,53.3,30.06,North,360,10.0,15.0,44,0.00,,---,0.00,918.00,VWS V14.01,2013-06-30 19:57:00,
2013-06-30 15:02:00,77.1,52.9,30.07,NE,38,10.0,15.0,43,0.00,,---,0.00,905.00,VWS V14.01,2013-06-30 20:02:00,
2013-06-30 15:07:00,77.0,52.2,30.06,NNE,27,5.0,11.0,42,0.00,,---,0.00,898.00,VWS V14.01,2013-06-30 20:07:00,
2013-06-30 15:12:00,77.1,52.9,30.06,ENE,65,7.0,11.0,43,0.00,,---,0.00,891.00,VWS V14.01,2013-06-30 20:12:00,
2013-06-30 15:17:00,77.5,54.5,30.06,NE,44,6.0,12.0,45,0.00,,---,0.00,882.00,VWS V14.01,2013-06-30 20:17:00,
2013-06-30 15:22:00,77.8,54.2,30.06,NE,54,10.0,11.0,44,0.00,,---,0.00,868.00,VWS V14.01,2013-06-30 20:22:00,
2013-06-30 15:27:00,77.7,52.2,30.06,North,10,6.0,13.0,41,0.00,,---,0.00,861.00,VWS V14.01,2013-06-30 20:27:00,
2013-06-30 15:32:00,77.6,51.4,30.06,North,355,4.0,13.0,40,0.00,,---,0.00,858.00,VWS V14.01,2013-06-30 20:32:00,
2013-06-30 15:37:00,77.8,51.6,30.07,NNE,28,11.0,12.0,40,0.00,,---,0.00,851.00,VWS V14.01,2013-06-30 20:37:00,
2013-06-30 15:42:00,77.8,52.2,30.06,NNE,25,2.0,12.0,41,0.00,,---,0.00,835.00,VWS V14.01,2013-06-30 20:42:00,
2013-06-30 15:47:00,77.9,52.3,30.06,North,355,5.0,13.0,41,0.00,,---,0.00,833.00,VWS V14.01,2013-06-30 20:47:00,
2013-06-30 15:52:00,78.1,52.5,30.06,NE,37,6.0,13.0,41,0.00,,---,0.00,812.00,VWS V14.01,2013-06-30 20:52:00,
2013-06-30 15:57:00,78.1,54.4,30.06,NNE,15,8.0,13.0,44,0.00,,---,0.00,803.00,VWS V14.01,2013-06-30 20:57:00,
2013-06-30 16:02:00,78.2,53.2,30.06,NNE,13,5.0,15.0,42,0.00,,---,0.00,795.00,VWS V14.01,2013-06-30 21:02:00,
2013-06-30 16:07:00,78.2,53.9,30.06,NE,36,0.0,7.0,43,0.00,,---,0.00,779.00,VWS V14.01,2013-06-30 21:07:00,
2013-06-30 16:12:00,78.3,54.0,30.06,NNE,28,7.0,13.0,43,0.00,,---,0.00,751.00,VWS V14.01,2013-06-30 21:12:00,
2013-06-30 16:17:00,78.3,55.2,30.06,NE,38,11.0,13.0,45,0.00,,---,0.00,759.00,VWS V14.01,2013-06-30 21:17:00,
2013-06-30 16:22:00,78.3,54.6,30.06,NE,40,6.0,11.0,44,0.00,,---,0.00,738.00,VWS V14.01,2013-06-30 21:22:00,
2013-06-30 16:27:00,78.2,53.9,30.06,NE,36,3.0,11.0,43,0.00,,---,0.00,726.00,VWS V14.01,2013-06-30 21:27:00,
2013-06-30 16:32:00,78.3,54.6,30.05,NE,44,5.0,11.0,44,0.00,,---,0.00,710.00,VWS V14.01,2013-06-30 21:32:00,
2013-06-30 16:37:00,78.4,55.3,30.05,NE,39,9.0,10.0,45,0.00,,---,0.00,680.00,VWS V14.01,2013-06-30 21:37:00,
2013-06-30 16:42:00,78.3,54.0,30.05,NE,49,7.0,12.0,43,0.00,,---,0.00,691.00,VWS V14.01,2013-06-30 21:42:00,
2013-06-30 16:47:00,78.3,53.3,30.05,NE,49,4.0,12.0,42,0.00,,---,0.00,680.00,VWS V14.01,2013-06-30 21:47:00,
2013-06-30 16:52:00,78.5,54.2,30.06,NNE,24,7.0,10.0,43,0.00,,---,0.00,656.00,VWS V14.01,2013-06-30 21:52:00,
2013-06-30 16:57:00,78.4,53.4,30.05,NNE,16,10.0,13.0,42,0.00,,---,0.00,659.00,VWS V14.01,2013-06-30 21:57:00,
2013-06-30 17:02:00,78.1,52.5,30.06,North,11,8.0,13.0,41,0.00,,---,0.00,612.00,VWS V14.01,2013-06-30 22:02:00,
2013-06-30 17:07:00,78.1,53.2,30.06,NE,40,5.0,13.0,42,0.00,,---,0.00,617.00,VWS V14.01,2013-06-30 22:07:00,
2013-06-30 17:12:00,78.3,54.6,30.05,NNE,13,5.0,13.0,44,0.00,,---,0.00,594.00,VWS V14.01,2013-06-30 22:12:00,
2013-06-30 17:17:00,78.5,52.9,30.05,NE,36,5.0,13.0,41,0.00,,---,0.00,598.00,VWS V14.01,2013-06-30 22:17:00,
2013-06-30 17:22:00,78.7,55.6,30.05,North,10,4.0,7.0,45,0.00,,---,0.00,573.00,VWS V14.01,2013-06-30 22:22:00,
2013-06-30 17:27:00,78.7,54.3,30.05,NNE,15,7.0,10.0,43,0.00,,---,0.00,568.00,VWS V14.01,2013-06-30 22:27:00,
2013-06-30 17:32:00,78.6,54.3,30.05,NE,40,10.0,13.0,43,0.00,,---,0.00,570.00,VWS V14.01,2013-06-30 22:32:00,
2013-06-30 17:37:00,78.3,54.6,30.05,NE,38,7.0,10.0,44,0.00,,---,0.00,563.00,VWS V14.01,2013-06-30 22:37:00,
2013-06-30 17:42:00,78.2,55.1,30.05,ENE,60,3.0,21.0,45,0.00,,---,0.00,533.00,VWS V14.01,2013-06-30 22:42:00,
2013-06-30 17:47:00,78.2,55.1,30.05,NNE,30,7.0,21.0,45,0.00,,---,0.00,485.00,VWS V14.01,2013-06-30 22:47:00,
2013-06-30 17:52:00,78.1,54.4,30.06,NNE,28,6.0,10.0,44,0.00,,---,0.00,153.00,VWS V14.01,2013-06-30 22:52:00,
2013-06-30 17:57:00,77.6,54.0,30.05,NNE,26,7.0,11.0,44,0.00,,---,0.00,121.00,VWS V14.01,2013-06-30 22:57:00,
2013-06-30 18:02:00,77.4,56.2,30.05,NNE,18,6.0,11.0,48,0.00,,---,0.00,448.00,VWS V14.01,2013-06-30 23:02:00,
2013-06-30 18:07:00,77.6,55.2,30.05,NNE,24,5.0,13.0,46,0.00,,---,0.00,443.00,VWS V14.01,2013-06-30 23:07:00,
2013-06-30 18:12:00,77.9,56.1,30.05,NE,34,4.0,13.0,47,0.00,,---,0.00,441.00,VWS V14.01,2013-06-30 23:12:00,
2013-06-30 18:17:00,78.1,55.7,30.05,NNE,22,12.0,13.0,46,0.00,,---,0.00,420.00,VWS V14.01,2013-06-30 23:17:00,
2013-06-30 18:22:00,78.0,55.6,30.05,NE,43,8.0,10.0,46,0.00,,---,0.00,396.00,VWS V14.01,2013-06-30 23:22:00,
2013-06-30 18:27:00,77.8,55.4,30.05,NE,35,5.0,10.0,46,0.00,,---,0.00,367.00,VWS V14.01,2013-06-30 23:27:00,
2013-06-30 18:32:00,77.8,55.4,30.05,NE,40,9.0,10.0,46,0.00,,---,0.00,355.00,VWS V14.01,2013-06-30 23:32:00,
2013-06-30 18:37:00,77.9,56.7,30.05,NE,40,3.0,7.0,48,0.00,,---,0.00,338.00,VWS V14.01,2013-06-30 23:37:00,
2013-06-30 18:42:00,77.8,54.8,30.05,NE,44,9.0,12.0,45,0.00,,---,0.00,318.00,VWS V14.01,2013-06-30 23:42:00,
2013-06-30 18:47:00,77.7,55.3,30.05,NE,40,11.0,12.0,46,0.00,,---,0.00,306.00,VWS V14.01,2013-06-30 23:47:00,
2013-06-30 18:52:00,77.6,55.2,30.05,NNE,32,5.0,10.0,46,0.00,,---,0.00,288.00,VWS V14.01,2013-06-30 23:52:00,
2013-06-30 18:57:00,77.5,55.1,30.05,NE,42,6.0,10.0,46,0.00,,---,0.00,272.00,VWS V14.01,2013-06-30 23:57:00,
2013-06-30 19:02:00,77.4,55.6,30.05,NE,36,5.0,10.0,47,0.00,,---,0.00,250.00,VWS V14.01,2013-07-01 00:02:00,
2013-06-30 19:07:00,77.3,54.9,30.05,NE,52,4.0,10.0,46,0.00,,---,0.00,236.00,VWS V14.01,2013-07-01 00:07:00,
2013-06-30 19:12:00,77.2,54.8,30.05,NE,43,3.0,10.0,46,0.00,,---,0.00,220.00,VWS V14.01,2013-07-01 00:12:00,
2013-06-30 19:17:00,77.1,55.3,30.05,NE,40,4.0,10.0,47,0.00,,---,0.00,200.00,VWS V14.01,2013-07-01 00:17:00,
2013-06-30 19:22:00,77.0,55.8,30.05,NE,38,8.0,8.0,48,0.00,,---,0.00,185.00,VWS V14.01,2013-07-01 00:22:00,
2013-06-30 19:27:00,76.9,55.7,30.05,NE,38,5.0,8.0,48,0.00,,---,0.00,167.00,VWS V14.01,2013-07-01 00:27:00,
2013-06-30 19:32:00,76.8,55.7,30.05,NE,37,4.0,10.0,48,0.00,,---,0.00,153.00,VWS V14.01,2013-07-01 00:32:00,
2013-06-30 19:37:00,76.6,56.0,30.05,NE,36,4.0,6.0,49,0.00,,---,0.00,139.00,VWS V14.01,2013-07-01 00:37:00,
2013-06-30 19:42:00,76.4,56.4,30.05,NE,38,5.0,7.0,50,0.00,,---,0.00,125.00,VWS V14.01,2013-07-01 00:42:00,
2013-06-30 19:47:00,76.2,56.8,30.05,NE,38,0.0,7.0,51,0.00,,---,0.00,111.00,VWS V14.01,2013-07-01 00:47:00,
2013-06-30 19:52:00,76.0,57.1,30.05,NE,37,0.0,0.0,52,0.00,,---,0.00,104.00,VWS V14.01,2013-07-01 00:52:00,
2013-06-30 19:57:00,75.8,56.9,30.05,NE,37,0.0,0.0,52,0.00,,---,0.00,91.00,VWS V14.01,2013-07-01 00:57:00,
2013-06-30 20:02:00,75.6,57.8,30.05,NE,38,0.0,0.0,54,0.00,,---,0.00,79.00,VWS V14.01,2013-07-01 01:02:00,
2013-06-30 20:07:00,75.4,57.6,30.05,NE,38,0.0,0.0,54,0.00,,---,0.00,69.00,VWS V14.01,2013-07-01 01:07:00,
2013-06-30 20:12:00,75.4,58.1,30.06,NE,37,0.0,0.0,55,0.00,,---,0.00,58.00,VWS V14.01,2013-07-01 01:12:00,
2013-06-30 20:17:00,75.2,57.4,30.05,NE,37,0.0,0.0,54,0.00,,---,0.00,49.00,VWS V14.01,2013-07-01 01:17:00,
2013-06-30 20:22:00,74.9,57.2,30.05,NE,38,0.0,0.0,54,0.00,,---,0.00,42.00,VWS V14.01,2013-07-01 01:22:00,
2013-06-30 20:27:00,74.6,56.4,30.06,NE,37,0.0,0.0,53,0.00,,---,0.00,33.00,VWS V14.01,2013-07-01 01:27:00,
2013-06-30 20:32:00,74.4,56.7,30.06,NE,38,0.0,0.0,54,0.00,,---,0.00,28.00,VWS V14.01,2013-07-01 01:32:00,
2013-06-30 20:37:00,74.1,56.9,30.05,NE,38,0.0,0.0,55,0.00,,---,0.00,23.00,VWS V14.01,2013-07-01 01:37:00,
2013-06-30 20:42:00,73.8,56.6,30.05,NE,37,0.0,0.0,55,0.00,,---,0.00,19.00,VWS V14.01,2013-07-01 01:42:00,
2013-06-30 20:47:00,73.6,56.0,30.05,NE,38,0.0,0.0,54,0.00,,---,0.00,14.00,VWS V14.01,2013-07-01 01:47:00,
2013-06-30 20:52:00,73.4,56.8,30.05,NE,38,0.0,0.0,56,0.00,,---,0.00,12.00,VWS V14.01,2013-07-01 01:52:00,
2013-06-30 20:57:00,73.2,57.5,30.05,NE,37,0.0,0.0,58,0.00,,---,0.00,9.00,VWS V14.01,2013-07-01 01:57:00,
2013-06-30 21:02:00,72.9,57.8,30.05,NE,38,0.0,0.0,59,0.00,,---,0.00,5.00,VWS V14.01,2013-07-01 02:02:00,
2013-06-30 21:07:00,72.5,57.8,30.06,NE,38,0.0,0.0,60,0.00,,---,0.00,0.00,VWS V14.01,2013-07-01 02:07:00,
2013-06-30 21:12:00,72.1,57.5,30.06,NE,38,0.0,0.0,60,0.00,,---,0.00,0.00,VWS V14.01,2013-07-01 02:12:00,
2013-06-30 21:17:00,71.5,56.9,30.06,NE,37,0.0,1.0,60,0.00,,---,0.00,0.00,VWS V14.01,2013-07-01 02:17:00,
2013-06-30 21:22:00,71.3,56.7,30.06,NE,38,0.0,0.0,60,0.00,,---,0.00,0.00,VWS V14.01,2013-07-01 02:22:00,
2013-06-30 21:27:00,71.0,56.4,30.06,NE,37,0.0,0.0,60,0.00,,---,0.00,0.00,VWS V14.01,2013-07-01 02:27:00,
2013-06-30 21:32:00,70.8,56.2,30.06,NE,38,0.0,0.0,60,0.00,,---,0.00,0.00,VWS V14.01,2013-07-01 02:32:00,
2013-06-30 21:37:00,70.7,56.6,30.07,NE,37,0.0,0.0,61,0.00,,---,0.00,0.00,VWS V14.01,2013-07-01 02:37:00,
2013-06-30 21:42:00,70.6,56.5,30.07,NE,37,0.0,0.0,61,0.00,,---,0.00,0.00,VWS V14.01,2013-07-01 02:42:00,
2013-06-30 21:47:00,70.5,56.4,30.07,NE,38,0.0,0.0,61,0.00,,---,0.00,0.00,VWS V14.01,2013-07-01 02:47:00,
2013-06-30 21:52:00,70.3,56.7,30.07,NE,38,0.0,0.0,62,0.00,,---,0.00,0.00,VWS V14.01,2013-07-01 02:52:00,
2013-06-30 21:57:00,70.0,56.8,30.07,NE,37,0.0,0.0,63,0.00,,---,0.00,0.00,VWS V14.01,2013-07-01 02:57:00,
2013-06-30 22:02:00,69.7,57.0,30.08,NE,38,0.0,0.0,64,0.00,,---,0.00,0.00,VWS V14.01,2013-07-01 03:02:00,
2013-06-30 22:07:00,69.4,56.7,30.08,NE,38,0.0,0.0,64,0.00,,---,0.00,0.00,VWS V14.01,2013-07-01 03:07:00,
2013-06-30 22:12:00,69.1,57.3,30.08,NE,37,0.0,0.0,66,0.00,,---,0.00,0.00,VWS V14.01,2013-07-01 03:12:00,
2013-06-30 22:17:00,68.7,57.7,30.08,NE,38,0.0,0.0,68,0.00,,---,0.00,0.00,VWS V14.01,2013-07-01 03:17:00,
2013-06-30 22:22:00,68.3,57.3,30.08,NE,37,0.0,0.0,68,0.00,,---,0.00,0.00,VWS V14.01,2013-07-01 03:22:00,
2013-06-30 22:27:00,67.9,57.8,30.08,NE,38,0.0,0.0,70,0.00,,---,0.00,0.00,VWS V14.01,2013-07-01 03:27:00,
2013-06-30 22:32:00,67.5,57.8,30.08,NE,37,0.0,0.0,71,0.00,,---,0.00,0.00,VWS V14.01,2013-07-01 03:32:00,
2013-06-30 22:37:00,67.2,57.5,30.08,NE,37,0.0,0.0,71,0.00,,---,0.00,0.00,VWS V14.01,2013-07-01 03:37:00,
2013-06-30 22:42:00,66.7,57.0,30.08,NE,38,0.0,0.0,71,0.00,,---,0.00,0.00,VWS V14.01,2013-07-01 03:42:00,
2013-06-30 22:47:00,66.2,56.5,30.08,NE,38,0.0,0.0,71,0.00,,---,0.00,0.00,VWS V14.01,2013-07-01 03:47:00,
2013-06-30 22:52:00,65.5,56.6,30.08,NE,37,0.0,0.0,73,0.00,,---,0.00,0.00,VWS V14.01,2013-07-01 03:52:00,
2013-06-30 22:57:00,64.8,56.3,30.08,NE,38,0.0,0.0,74,0.00,,---,0.00,0.00,VWS V14.01,2013-07-01 03:57:00,
2013-06-30 23:01:00,64.3,56.2,30.08,NE,37,0.0,0.0,75,0.00,,---,0.00,0.00,VWS V14.01,2013-07-01 04:01:00,
2013-06-30 23:06:00,63.8,56.5,30.08,NE,38,0.0,0.0,77,0.00,,---,0.00,0.00,VWS V14.01,2013-07-01 04:06:00,
2013-06-30 23:11:00,63.5,56.2,30.09,NE,38,0.0,0.0,77,0.00,,---,0.00,0.00,VWS V14.01,2013-07-01 04:11:00,
2013-06-30 23:16:00,63.3,56.3,30.09,NE,38,0.0,0.0,78,0.00,,---,0.00,0.00,VWS V14.01,2013-07-01 04:16:00,
2013-06-30 23:21:00,63.2,56.2,30.09,NE,38,0.0,0.0,78,0.00,,---,0.00,0.00,VWS V14.01,2013-07-01 04:21:00,
2013-06-30 23:26:00,62.9,55.9,30.09,NE,37,0.0,0.0,78,0.00,,---,0.00,0.00,VWS V14.01,2013-07-01 04:26:00,
2013-06-30 23:31:00,62.7,55.8,30.09,NE,37,0.0,0.0,78,0.00,,---,0.00,0.00,VWS V14.01,2013-07-01 04:31:00,
2013-06-30 23:36:00,62.4,55.5,30.09,NE,38,0.0,0.0,78,0.00,,---,0.00,0.00,VWS V14.01,2013-07-01 04:36:00,
2013-06-30 23:41:00,62.2,55.6,30.09,NE,37,0.0,0.0,79,0.00,,---,0.00,0.00,VWS V14.01,2013-07-01 04:41:00,
2013-06-30 23:46:00,62.0,55.4,30.09,NE,38,0.0,0.0,79,0.00,,---,0.00,0.00,VWS V14.01,2013-07-01 04:46:00,
2013-06-30 23:51:00,61.9,55.3,30.09,NE,38,0.0,0.0,79,0.00,,---,0.00,0.00,VWS V14.01,2013-07-01 04:51:00,
2013-06-30 23:56:00,61.7,55.1,30.09,NE,38,0.0,0.0,79,0.00,,---,0.00,0.00,VWS V14.01,2013-07-01 04:56:00,